Bennettsville, SC

4:50 AM EDT on August 29, 2016 (GMT -0400)
Marlboro County-Avent

Weather History for KBBP - October, 2012

Change the Weather History Date:

Tuesday, October 23, 2012

  Actual Average (KFLO) Record (KFLO)
Temperature  
Mean Temperature 62 °F 62 °F  
Max Temperature 80 °F 74 °F 88 °F (2007)
Min Temperature 44 °F 51 °F 32 °F (1974)
Degree Days  
Heating Degree Days 3 5  
Month to date heating degree days 62  
Since 1 July heating degree days 71  
Cooling Degree Days 0 2  
Month to date cooling degree days 74  
Year to date cooling degree days 2030  
Growing Degree Days 12 (Base 50)    
Moisture  
Dew Point 49 °F    
Average Humidity 74    
Maximum Humidity 100    
Minimum Humidity 30    
Precipitation  
Precipitation 0.00 in 0.09 in 1.60 in (1983)
Month to date precipitation 2.42  
Year to date precipitation 36.57  
Sea Level Pressure  
Sea Level Pressure 30.16 in    
Wind  
Wind Speed 1 mph (South)    
Max Wind Speed 5 mph    
Max Gust Speed -    
Visibility 9 miles    
Events      
T = Trace of Precipitation, MM = Missing Value Source: NWS Daily Summary

Daily Weather History Graph

Daily Weather History Graph

Search for Another Location

Airport or City:

Trip Planner

Search our weather history database for the weather conditions in past years. The results will help you decide how hot, cold, wet, or windy it might be!

Date:

Astronomy

Oct. 23, 2012 Rise Set
Actual Time 7:31 AM EDT 6:34 PM EDT
Civil Twilight 7:06 AM EDT 6:59 PM EDT
Nautical Twilight 6:36 AM EDT 7:29 PM EDT
Astronomical Twilight 6:07 AM EDT 7:58 PM EDT
Moon 3:03 PM EDT (10/23) 1:36 AM EDT (10/23)
Length of Visible Light 11h 53m
Length of Day
11h 02m
Waxing Gibbous, 66% of the Moon is Illuminated
Oct 23
Waxing Gibbous
Oct 29
Full
Nov 6
Last Quarter
Nov 13
New
Nov 20
First Quarter

Hourly Weather History & Observations

Time (EDT) Temp. Dew Point Humidity Pressure Visibility Wind Dir Wind Speed Gust Speed Precip Events Conditions
12:15 AM 50.0 °F 50.0 °F 100% 30.19 in 10.0 mi Calm Calm - N/A   Clear
12:35 AM 53.6 °F 53.6 °F 100% 30.19 in 10.0 mi Calm Calm - N/A   Clear
1:15 AM 50.0 °F 50.0 °F 100% 30.18 in 7.0 mi Calm Calm - N/A   Clear
1:35 AM 48.2 °F 48.2 °F 100% 30.19 in 7.0 mi Calm Calm - N/A   Clear
2:15 AM 46.4 °F 46.4 °F 100% 30.18 in 5.0 mi Calm Calm - N/A   Clear
2:55 AM 46.4 °F 46.4 °F 100% 30.18 in 5.0 mi Calm Calm - N/A   Clear
3:35 AM 48.2 °F 48.2 °F 100% 30.16 in 7.0 mi Calm Calm - N/A   Clear
3:55 AM 46.4 °F 46.4 °F 100% 30.16 in 5.0 mi Calm Calm - N/A   Clear
4:15 AM 46.4 °F 46.4 °F 100% 30.16 in 7.0 mi Calm Calm - N/A   Clear
4:35 AM 44.6 °F 44.6 °F 100% 30.16 in 7.0 mi Calm Calm - N/A   Clear
4:55 AM 44.6 °F 44.6 °F 100% 30.16 in 7.0 mi Calm Calm - N/A   Clear
5:15 AM 44.6 °F 44.6 °F 100% 30.16 in 1.2 mi Calm Calm - N/A   Mist
5:35 AM 44.6 °F 44.6 °F 100% 30.16 in 7.0 mi Calm Calm - N/A   Clear
5:55 AM 44.6 °F 44.6 °F 100% 30.17 in 5.0 mi Calm Calm - N/A   Clear
6:15 AM 44.6 °F 44.6 °F 100% 30.18 in 7.0 mi Calm Calm - N/A   Clear
6:55 AM 44.6 °F 44.6 °F 100% 30.19 in 5.0 mi Calm Calm - N/A   Clear
7:35 AM 44.6 °F 44.6 °F 100% 30.21 in 2.5 mi Calm Calm - N/A   Clear
7:55 AM 44.6 °F 44.6 °F 100% 30.21 in 5.0 mi Calm Calm - N/A   Clear
8:15 AM 46.4 °F 46.4 °F 100% 30.21 in 5.0 mi Calm Calm - N/A   Clear
8:35 AM 50.0 °F 50.0 °F 100% 30.22 in 7.0 mi Calm Calm - N/A   Clear
8:55 AM 51.8 °F 51.8 °F 100% 30.22 in 7.0 mi Calm Calm - N/A   Clear
9:55 AM 60.8 °F 53.6 °F 77% 30.22 in 10.0 mi Calm Calm - N/A   Clear
10:15 AM 62.6 °F 53.6 °F 72% 30.22 in 10.0 mi Calm Calm - N/A   Clear
10:35 AM 66.2 °F 51.8 °F 60% 30.21 in 10.0 mi Calm Calm - N/A   Clear
11:15 AM 69.8 °F 51.8 °F 53% 30.21 in 10.0 mi West 4.6 mph - N/A   Clear
11:55 AM 73.4 °F 51.8 °F 47% 30.20 in 10.0 mi South 3.5 mph - N/A   Clear
12:15 PM 73.4 °F 50.0 °F 44% 30.19 in 10.0 mi WSW 4.6 mph - N/A   Clear
12:35 PM 75.2 °F 48.2 °F 38% 30.18 in 10.0 mi South 3.5 mph - N/A   Clear
12:55 PM 77.0 °F 46.4 °F 34% 30.17 in 10.0 mi South 4.6 mph - N/A   Clear
1:15 PM 77.0 °F 48.2 °F 36% 30.17 in 10.0 mi WSW 4.6 mph - N/A   Clear
1:35 PM 77.0 °F 48.2 °F 36% 30.16 in 10.0 mi Calm Calm - N/A   Clear
2:15 PM 78.8 °F 48.2 °F 34% 30.14 in 10.0 mi WSW 3.5 mph - N/A   Clear
2:35 PM 78.8 °F 48.2 °F 34% 30.13 in 10.0 mi SE 3.5 mph - N/A   Clear
2:55 PM 78.8 °F 48.2 °F 34% 30.13 in 10.0 mi South 3.5 mph - N/A   Clear
3:15 PM 78.8 °F 46.4 °F 32% 30.12 in 10.0 mi SSE 4.6 mph - N/A   Clear
3:35 PM 80.6 °F 46.4 °F 30% 30.12 in 10.0 mi West 3.5 mph - N/A   Clear
3:55 PM 78.8 °F 46.4 °F 32% 30.12 in 10.0 mi South 3.5 mph - N/A   Clear
4:15 PM 78.8 °F 46.4 °F 32% 30.12 in 10.0 mi Calm Calm - N/A   Clear
4:35 PM 80.6 °F 46.4 °F 30% 30.12 in 10.0 mi SSE 3.5 mph - N/A   Clear
4:55 PM 78.8 °F 46.4 °F 32% 30.12 in 10.0 mi South 3.5 mph - N/A   Clear
5:15 PM 78.8 °F 46.4 °F 32% 30.12 in 10.0 mi South 3.5 mph - N/A   Clear
5:35 PM 78.8 °F 46.4 °F 32% 30.11 in 10.0 mi Calm Calm - N/A   Clear
5:55 PM 77.0 °F 50.0 °F 39% 30.11 in 10.0 mi Calm Calm - N/A   Clear
6:15 PM 75.2 °F 50.0 °F 41% 30.11 in 10.0 mi Calm Calm - N/A   Clear
6:35 PM 69.8 °F 51.8 °F 53% 30.12 in 10.0 mi Calm Calm - N/A   Clear
6:55 PM 64.4 °F 53.6 °F 68% 30.12 in 10.0 mi Calm Calm - N/A   Clear
7:15 PM 64.4 °F 53.6 °F 68% 30.12 in 10.0 mi Calm Calm - N/A   Clear
7:35 PM 60.8 °F 53.6 °F 77% 30.13 in 10.0 mi Calm Calm - N/A   Clear
7:55 PM 60.8 °F 53.6 °F 77% 30.13 in 10.0 mi Calm Calm - N/A   Clear
8:15 PM 59.0 °F 53.6 °F 82% 30.14 in 10.0 mi Calm Calm - N/A   Clear
8:35 PM 59.0 °F 55.4 °F 88% 30.13 in 10.0 mi Calm Calm - N/A   Clear
8:55 PM 57.2 °F 53.6 °F 88% 30.14 in 10.0 mi Calm Calm - N/A   Clear
9:15 PM 55.4 °F 53.6 °F 94% 30.14 in 10.0 mi Calm Calm - N/A   Clear
9:35 PM 55.4 °F 53.6 °F 94% 30.14 in 10.0 mi Calm Calm - N/A   Clear
9:55 PM 53.6 °F 51.8 °F 94% 30.14 in 10.0 mi Calm Calm - N/A   Clear
10:15 PM 53.6 °F 53.6 °F 100% 30.15 in 10.0 mi Calm Calm - N/A   Clear
10:35 PM 53.6 °F 51.8 °F 94% 30.15 in 10.0 mi Calm Calm - N/A   Clear
10:55 PM 53.6 °F 53.6 °F 100% 30.16 in 10.0 mi Calm Calm - N/A   Clear
11:15 PM 53.6 °F 53.6 °F 100% 30.16 in 10.0 mi SSE 3.5 mph - N/A   Clear
11:35 PM 51.8 °F 50.0 °F 94% 30.16 in 10.0 mi Calm Calm - N/A   Clear
11:55 PM 51.8 °F 51.8 °F 100% 30.16 in 10.0 mi Calm Calm - N/A   Clear